CZ-4B R/B, 46470

Orbit data source: Space-Track

CZ-4B R/B, 46470 is space debris in LEO originally from a launch on Mon, 21 Sep 2020 UTC launched from the Jiuquan Satellite Launch Center, China (JSC). Debris objects in space refer to the collection of defunct objects orbiting the Earth. Examples of debris include non-operational satellites, rocket bodies, and fragments generated from explosions, collisions, or faulty payload assembly.

Loading next visibility...
Identifier
46470, 2020-066B
Orbit
LEO
Country
Flag of CNCN / PRC
Related business
Manufacturer
SAST
Mission
Spacecraft
Bus & Motor
CZ-4 STAGE 3, Unknown motor
Mass
~1,000 kg wet, ~1,000 kg dry
Launch date (UTC)
2020-09-21 (6 years ago)
Launch vehicle
Unknown
Launch site
Jiuquan Satellite Launch Center, China (JSC)
Object type
Payload
Rocket body
Debris
Shape & HBR
Cyl, 2.5 m
Radar Cross Section
14.536 m², Large (>1 m²)

Expand to show TLE details & history
Last TLE update: 2 days ago

TLE from 2 days ago
0 CZ-4B R/B
1 46470U 20066B   26171.39795420 -.00000013  00000-0  28080-4 0  9998
2 46470  66.0548 164.8332 0200982 209.2047 149.7691 14.29920919299816
Epoch: 2026-06-20T09:33Z
TLE epoch observation values (Epoch: 2026-06-20T09:33:03.242Z)
Latitude
-0.00003°
Longitude
112.95653°
Altitude
919.288 km
Speed
7.328 km/s
True Right ascension
10h 59m 19s
True Declination
0° 00' 00"
Sunlit
Object was in daylight at epoch
Visualization orbit readout
Latitude
Unknown
Longitude
Unknown
Altitude
Unknown
Speed
Unknown
Apparent Right ascension
Unknown
Apparent Declination
Unknown
Sunlit
N/A
Visualization observer readout
Local Sidereal Time
21:27:05
Azimuth
Unknown
Elevation
Unknown
Doppler factor
Unknown
Orbital elements
Apogee altitude
934.521 km
Perigee altitude
646.37 km
Semi-major axis
7,168.582 km
Eccentricity
0.0201
Inclination
66.0548°
RAAN
164.8332°
Arg. of periapsis
209.2047°
True anomaly
150.90394°
Mean anomaly
149.7691°
Eccentric anomaly
150.33896°
Mean motion
3.57596 °/min
Orbital period
100.67 mins
BSTAR
0.00002808
Loading maneuver chart data...
Computing Atmospheric mass density...
Loading historical data...
Loading historical data...
Loading historical data...
Loading historical data...
Loading historical data...
Loading historical data...
Loading historical data...
Other satellites on launch #66 in the year 2020 (2020-09-21 UTC)

Documentation

Showing up to 5 results
|